Regional Weather Roundup
Issued by NWS Sioux Falls, SD

Home | Current Version | Previous Version | Graphics & Text | Print | Product List | Glossary Off
Versions: 1 2 3 4 5 6 7 8 9 10 11 12 13 14 15 16 17 18 19 20 21 22 23 24 25 26 27 28 29 30 31 32 33 34 35 36 37 38 39 40 41 42 43 44 45 46 47 48 49 50

000
ASUS43 KFSD 280310
RWRFSD

WEATHER ROUNDUP FOR SE SOUTH DAKOTA/SW MINNESOTA/NW IOWA
NATIONAL WEATHER SERVICE SIOUX FALLS SD
1000 PM CDT WED JUL 27 2016

NOTE: "FAIR" INDICATES FEW OR NO CLOUDS BELOW 12,000 FEET WITH NO
SIGNIFICANT WEATHER AND OR OBSTRUCTIONS TO VISIBILITY.


SDZ038>040-050-052>070-280400-
SOUTHEAST SOUTH DAKOTA

CITY           SKY/WX    TMP DP  RH WIND       PRES   REMARKS
BROOKINGS      CLOUDY    67  61  81 N3        30.06R
CHAMBERLAIN    CLOUDY    73  66  76 E5        30.02F
HURON          MOCLDY    72  61  68 N9        30.03F
MADISON        FAIR      64  64 100 NE8       30.07S
MITCHELL       CLOUDY    73  65  75 NE6       30.03S
SIOUX FALLS    CLOUDY    71  64  78 N7        30.03S
WINNER         FAIR      66  62  87 S10       30.02F
YANKTON        MOCLDY    75  63  64 NE7       30.00R
$$

MNZ071-072-080-081-089-090-097-098-280400-
SOUTHWEST MINNESOTA

CITY           SKY/WX    TMP DP  RH WIND       PRES   REMARKS
FAIRMONT       PTCLDY    68  64  88 NW5       29.98R
JACKSON        CLEAR     68  63  83 NW3       30.03R
LUVERNE        CLOUDY    68  61  77 N5        30.05R
MARSHALL       MOCLDY    67  64  90 NW7       30.04R
MONTEVIDEO     CLEAR     70  61  73 N9        30.04R
REDWOOD FALLS  CLEAR     69  65  86 NW5       30.00R
TRACY          CLEAR     69  65  87 NW5       30.04R
WINDOM         PTCLDY    68  64  88 NW5       30.02R
WORTHINGTON    CLEAR     68  64  87 N7        30.04R
$$

IAZ001>003-012>014-020>022-031-032-NEZ013-014-SDZ071-280400-
NORTHWEST IOWA

CITY           SKY/WX    TMP DP  RH WIND       PRES   REMARKS
CHEROKEE       CLEAR     74  68  81 N7        29.99S
DENISON        CLEAR     72  70  94 CALM      29.96S
ESTHERVILLE    CLEAR     69  66  90 N7        30.00R
LE MARS        PTCLDY    75  66  73 N5        30.01R
SHELDON        CLOUDY    68  66  94 N3        30.01R
SIOUX CITY     CLOUDY    80  67  64 NE9       29.99R
SPENCER        CLEAR     69  64  84 NW3       30.01R
STORM LAKE     PTCLDY    72  68  88 N8        30.01R
$$

ABBREVIATIONS USED IN REMARKS
   TC - TEMPERATURE IN CELSIUS
  WCI - WIND CHILL INDEX
   HX - HEAT INDEX
  VSB - VISIBILITY




USA.gov is the U.S. government's official web portal to all federal, state and local government web resources and services.